Theta_e
287 284 281 283 285 285 284 282 281 284 288 286 286 287 289 292 292 289 289 291 291 291 295 297 301 307 308 321 327 328 328 328 316 312 310 305 305 304 304 305 303 301 299 298
284 281 286 288 287 285 283 281 281 284 288 286 285 285 289 290 291 293 293 292 291 292 293 294 294 295 299 309 325 327 327 320 318 319 315 310 304 304 304 302 301 300 299 299
281 284 288 286 285 283 284 283 282 282 285 286 283 283 287 289 291 293 293 294 295 294 295 295 294 294 295 300 317 326 325 318 318 317 304 302 301 300 299 299 298 298 297 297
281 286 285 284 283 284 280 287 286 285 283 276 283 276 283 286 290 291 292 292 294 295 295 296 295 294 294 299 309 322 322 317 315 308 308 305 305 300 298 297 298 295 297 296
279 282 283 282 283 286 283 287 285 284 283 280 280 278 280 286 288 290 290 291 293 294 295 296 296 295 295 298 309 319 317 314 311 307 308 307 306 300 297 296 295 295 294 295
280 285 285 281 284 287 288 285 283 283 284 276 279 279 281 284 282 285 287 289 289 289 291 294 295 293 292 300 308 312 309 309 304 308 307 309 303 297 296 295 294 295 292 293
276 278 282 282 277 283 282 279 268 270 274 272 279 279 283 284 286 287 288 289 291 289 289 290 291 292 292 301 304 306 306 302 302 305 305 305 302 300 298 295 295 292 291 290
267 267 275 277 276 277 276 280 271 268 268 272 278 276 280 285 287 288 288 289 290 291 289 290 291 291 294 298 300 303 303 299 301 302 302 301 301 301 299 298 295 294 293 291
267 269 276 276 278 277 272 270 279 275 274 272 274 279 282 285 285 286 286 288 288 291 289 288 290 291 292 295 297 299 298 297 299 300 299 299 300 300 298 297 296 294 292 292
270 263 274 277 278 279 276 278 271 270 269 267 271 275 277 279 281 285 286 286 288 291 291 288 289 289 290 291 293 295 296 295 296 296 298 298 298 300 298 296 293 292 291 291
273 268 269 275 272 270 272 272 272 271 271 268 266 274 280 278 280 281 283 287 288 290 291 289 289 290 290 290 290 291 292 293 293 295 296 296 296 295 295 294 292 292 291 290
274 265 264 268 273 276 275 272 271 265 262 267 268 269 281 280 281 282 282 285 289 289 291 290 291 291 290 290 290 291 291 291 291 294 295 294 293 293 292 291 291 291 290 290
270 263 255 260 266 271 268 271 272 272 270 259 264 265 279 280 280 281 280 282 284 285 286 286 287 288 291 290 289 290 291 290 291 292 292 292 291 292 291 290 290 290 289 289
277 268 262 257 263 267 266 268 270 269 262 265 267 268 273 276 277 279 281 282 282 283 283 284 286 287 288 291 290 289 290 290 290 291 291 290 290 290 290 290 289 289 289 287
269 258 264 267 269 269 268 269 269 267 268 264 268 269 274 275 276 277 281 281 281 282 283 283 284 285 287 289 291 290 290 289 290 289 290 289 289 290 289 289 288 287 287 286
273 264 263 264 267 268 267 269 269 269 270 269 270 270 277 276 277 276 279 280 280 281 283 283 284 285 285 286 289 291 290 290 290 289 289 289 289 288 288 288 287 287 286 286
271 263 256 257 263 259 255 263 268 270 272 273 268 273 276 273 275 276 277 280 279 281 282 282 283 284 285 285 288 290 291 291 289 289 289 289 288 288 287 287 287 286 286 285
266 264 264 257 253 248 265 270 271 271 274 274 275 276 276 275 276 277 279 280 279 280 281 282 283 284 284 285 286 288 290 290 289 287 289 288 288 286 286 286 286 286 285 285
274 266 257 254 248 260 266 270 270 268 268 274 273 275 275 275 274 274 279 280 280 278 282 283 284 284 284 285 285 285 288 287 286 287 286 286 287 286 285 285 285 285 285 284
268 265 262 251 253 250 264 270 272 272 264 273 275 275 273 274 269 272 277 278 279 279 279 282 283 284 283 284 285 284 286 286 286 286 287 287 287 286 286 286 285 284 285 285
253 250 260 257 256 258 268 272 273 260 266 274 274 274 274 272 273 276 278 278 278 275 278 281 282 282 283 284 284 283 284 285 286 286 287 286 287 287 287 286 285 285 285 284
261 255 251 246 247 255 270 269 267 272 274 275 275 276 275 276 276 277 277 277 278 275 275 279 278 281 283 283 283 283 283 285 286 286 286 287 287 286 286 286 286 285 285 284
263 267 262 262 262 271 273 274 276 276 275 275 275 276 276 275 275 276 276 276 278 277 278 278 277 279 281 283 283 282 283 284 284 285 287 288 287 286 287 287 286 285 284 284
268 271 267 269 272 273 275 276 276 276 276 277 277 277 276 275 276 277 277 278 277 278 278 277 278 278 280 282 282 281 282 282 282 283 286 287 288 287 286 287 287 286 284 284
272 269 267 269 272 274 275 276 277 277 277 277 278 277 277 276 277 277 277 277 277 277 278 277 277 278 279 281 280 281 280 280 279 282 284 286 287 287 286 286 287 286 286 286
273 272 269 268 274 273 274 277 278 277 277 278 277 277 278 277 277 277 276 277 276 275 275 275 275 275 275 276 277 278 277 276 276 279 283 285 286 286 286 285 285 288 287 287
Wind_Speed
6 5 6 5 4 6 7 8 13 12 13 14 17 24 15 14 13 8 9 13 11 11 11 8 9 12 8 7 12 15 15 14 12 8 6 4 5 5 5 4 6 7 7 8
8 5 4 7 6 4 4 7 7 9 5 7 10 26 17 17 19 16 14 14 13 10 9 10 9 9 12 15 13 16 17 15 14 11 8 5 6 4 3 5 4 5 7 8
1 4 8 5 9 12 6 5 3 7 10 8 9 22 10 8 15 12 13 15 13 16 17 12 9 12 10 14 17 16 17 17 16 13 9 8 8 6 3 4 4 1 6 5
3 6 8 12 9 9 6 4 3 5 4 3 5 17 4 1 9 5 8 9 13 14 13 13 9 8 12 14 12 14 16 17 14 16 13 19 14 11 5 6 4 4 6 6
6 8 12 8 9 11 6 9 6 4 6 2 5 6 2 6 14 12 18 20 17 13 11 14 10 11 11 11 16 16 16 17 15 17 16 14 13 6 9 7 10 6 4 5
5 6 4 4 12 5 11 11 15 5 5 9 9 9 12 6 7 15 20 21 20 19 18 17 14 8 8 7 8 11 15 15 15 17 16 17 17 15 12 11 10 7 4 4
9 5 5 14 14 9 23 9 6 5 3 6 3 4 12 12 12 12 15 19 20 18 18 18 19 12 6 8 11 12 16 14 15 16 15 14 15 16 19 17 12 13 8 6
4 11 8 16 5 10 11 3 3 9 5 12 5 5 2 4 8 11 13 15 18 24 20 18 17 15 8 6 6 10 13 14 15 14 14 11 13 9 9 12 11 10 8 7
6 6 11 14 9 1 10 4 12 9 13 10 6 5 6 14 19 23 22 20 23 22 21 19 16 14 11 6 5 5 7 8 13 14 12 12 12 12 11 10 10 9 8 8
4 7 7 8 7 7 9 10 7 6 6 5 5 4 3 18 21 19 22 21 20 22 23 19 14 13 10 8 6 3 5 5 5 8 10 10 11 12 11 12 10 11 10 11
2 3 7 5 6 14 7 6 6 5 5 6 6 3 12 18 17 17 17 18 16 19 19 19 16 12 10 8 8 6 4 7 7 7 8 11 9 12 12 11 11 12 11 11
3 4 5 11 8 4 9 3 5 4 9 7 7 7 13 22 21 19 19 19 17 18 18 18 16 15 14 10 7 6 3 4 4 6 8 8 9 11 11 10 12 12 11 10
3 3 5 12 7 4 2 10 7 8 9 5 7 9 23 16 17 19 20 20 19 20 20 19 19 18 16 12 8 6 5 3 4 6 8 8 9 10 10 11 11 11 11 10
6 2 8 8 11 11 13 13 13 9 4 11 15 24 20 12 13 15 15 16 19 19 20 19 19 20 18 13 8 7 4 4 3 5 6 8 8 9 10 10 10 10 10 10
4 4 4 10 14 16 17 20 18 16 14 15 19 18 16 12 10 13 8 12 13 18 20 19 18 17 17 19 13 6 5 1 2 5 6 6 7 8 9 10 9 8 9 8
3 8 3 12 14 13 15 19 17 19 19 20 22 20 0 9 9 11 10 11 9 11 14 17 17 18 18 16 16 11 5 5 2 2 4 6 8 8 9 9 9 9 9 9
5 3 2 8 3 5 7 9 6 8 4 1 9 8 5 8 11 10 10 8 9 9 12 14 15 15 15 15 14 14 9 3 4 4 4 6 6 7 7 8 8 9 9 8
5 4 3 6 5 2 9 4 8 12 10 7 12 11 7 9 10 8 9 7 10 11 10 12 10 12 13 14 15 14 8 4 5 3 6 5 5 6 6 7 7 6 6 7
15 5 2 3 4 8 5 9 5 5 13 12 14 9 8 6 6 7 7 5 9 8 9 9 9 10 11 10 14 13 11 6 3 7 4 7 7 8 8 8 7 5 7 5
4 4 4 3 3 8 7 8 4 0 8 10 8 10 5 9 10 11 10 6 10 8 7 9 11 10 11 10 9 12 12 9 6 5 9 7 9 10 10 9 9 4 5 5
2 2 9 6 7 11 11 12 2 3 10 4 2 7 13 14 8 12 15 14 8 7 9 8 7 9 10 11 8 10 10 11 5 3 4 5 8 10 10 9 5 6 6 6
7 5 5 3 1 11 8 1 7 8 4 5 13 16 16 16 16 14 12 13 12 9 9 10 7 8 7 7 8 10 9 10 6 6 7 8 7 7 7 10 6 7 8 7
7 10 7 12 10 5 6 9 12 10 14 18 12 15 11 14 13 14 13 12 14 11 10 8 9 10 7 5 4 10 10 9 11 7 9 9 9 8 9 10 9 7 7 7
5 6 11 11 13 21 22 18 12 11 14 17 14 14 12 14 16 16 13 13 11 9 9 7 10 12 11 6 6 8 10 8 8 10 9 8 10 10 8 8 8 8 9 8
9 7 6 18 22 20 20 17 18 16 13 14 13 13 14 12 16 13 13 12 9 8 6 6 9 10 13 10 11 9 8 9 9 9 8 9 7 10 11 11 10 10 9 12
9 19 12 18 21 12 17 18 16 14 16 17 15 16 12 8 11 7 9 7 7 8 9 10 10 9 12 13 11 11 7 6 9 8 7 6 7 8 8 8 7 14 11 14
Wind_Direction
340 46 40 334 264 248 288 281 286 291 285 284 275 279 275 281 281 275 257 266 263 248 259 226 217 210 195 198 189 186 181 175 153 146 141 128 151 145 126 114 135 140 137 139
8 72 12 321 292 273 269 286 288 275 321 298 296 283 271 274 270 261 260 260 257 265 258 235 213 203 199 200 192 187 189 172 173 173 166 149 148 126 133 125 106 151 142 142
42 299 338 359 336 329 285 235 277 289 328 259 283 280 265 239 252 264 252 252 258 244 258 255 215 213 198 194 197 193 187 179 179 166 123 104 93 95 103 141 137 165 130 139
314 312 3 345 333 357 321 283 271 276 359 276 36 291 113 236 264 301 284 263 258 259 255 259 231 217 210 210 194 191 186 182 176 162 160 161 166 167 170 162 150 143 141 135
288 317 356 14 327 316 299 329 291 233 251 284 206 257 313 12 310 322 356 350 347 326 303 293 272 243 225 203 195 188 179 180 174 172 170 167 165 142 132 126 125 132 125 141
291 297 55 323 311 0 347 323 296 255 223 254 236 189 285 50 355 353 351 346 345 340 339 323 296 272 233 196 188 179 172 176 169 177 174 176 164 148 143 146 144 160 155 153
334 343 3 23 353 332 358 356 332 330 206 233 34 280 271 33 22 8 348 351 348 349 344 338 328 308 255 200 188 179 176 174 173 174 175 170 167 167 165 161 161 154 167 167
6 336 10 359 359 331 314 31 289 299 333 302 343 225 316 18 4 360 11 351 356 357 349 343 338 325 296 249 210 190 186 168 171 170 169 158 156 159 162 162 166 143 176 140
344 278 334 324 317 175 310 3 317 273 258 259 228 257 195 25 14 4 358 2 356 355 349 343 343 342 332 306 250 212 180 170 171 168 155 152 151 152 156 149 160 137 141 140
290 307 303 333 330 15 344 278 329 312 287 277 306 300 15 16 6 356 347 350 346 351 352 349 346 347 345 339 343 86 136 150 142 139 149 147 150 149 152 143 150 141 142 144
283 166 301 339 3 322 349 28 346 318 344 313 346 299 39 17 358 339 339 339 337 348 351 351 346 349 344 355 356 4 101 130 128 129 133 140 145 143 149 148 156 135 142 137
262 192 291 298 290 163 71 49 45 1 325 291 261 248 30 18 348 345 349 338 346 357 353 352 353 356 355 352 356 354 37 83 98 119 127 127 126 132 138 138 132 141 147 141
295 311 343 337 355 351 37 319 333 294 256 232 267 282 345 2 351 357 357 355 358 357 355 357 359 359 353 347 346 350 359 69 83 110 126 125 129 133 134 139 134 138 142 135
278 214 171 212 249 280 298 293 296 268 233 274 261 288 302 337 337 336 344 352 356 354 355 358 358 354 351 344 341 335 356 4 85 103 118 130 141 142 140 133 136 144 135 137
121 235 234 244 256 271 273 279 273 258 254 249 268 273 294 319 321 331 341 339 356 354 347 352 352 349 348 346 339 324 316 235 165 128 129 133 122 123 125 132 134 135 133 139
179 272 330 286 261 264 267 271 272 267 269 263 269 274 286 318 315 331 323 320 344 352 351 343 346 348 350 347 331 318 273 272 193 164 137 128 128 133 140 136 147 140 143 150
222 197 75 263 352 349 330 245 233 271 250 280 308 299 294 313 315 317 305 314 326 319 340 353 341 341 341 341 337 322 298 156 248 152 133 135 134 136 141 135 144 157 153 144
206 170 199 265 19 349 242 270 234 244 264 260 268 253 257 285 293 287 277 279 316 315 320 323 333 331 334 330 343 332 310 243 182 239 149 137 141 134 130 142 149 146 152 157
206 171 252 174 195 286 282 266 237 232 298 280 271 253 258 301 300 278 274 249 288 280 289 295 303 315 320 329 335 335 322 284 217 176 200 160 157 150 152 162 160 158 154 156
75 81 150 76 212 245 232 250 274 347 276 258 228 243 300 322 311 297 307 298 298 279 271 283 300 309 316 327 330 331 333 309 263 217 192 182 169 163 176 168 161 142 146 153
85 352 219 233 242 279 251 257 122 120 276 259 233 272 293 300 275 283 297 296 275 251 283 289 292 297 297 316 327 322 322 311 272 242 195 195 184 179 173 160 153 150 153 150
183 180 205 78 154 280 222 335 197 273 298 264 295 292 293 290 288 283 277 280 289 274 288 294 284 289 297 301 314 311 310 314 274 223 213 200 192 179 160 168 155 155 158 170
253 203 215 189 213 236 227 260 276 277 279 285 281 283 273 273 273 278 281 276 284 277 280 280 283 289 288 262 273 301 302 324 311 247 222 207 187 183 180 172 171 165 174 178
246 180 240 269 245 259 268 276 265 264 268 277 271 268 272 268 274 277 277 281 272 272 273 274 294 303 300 295 296 276 297 305 294 277 237 224 206 187 185 189 172 191 180 189
234 174 234 256 263 271 268 262 268 277 266 266 271 264 265 266 272 275 283 287 288 288 291 290 291 296 300 315 308 308 298 310 292 272 256 230 219 212 188 197 185 198 202 187
201 247 241 256 262 250 277 288 281 275 277 282 280 287 279 257 275 300 290 308 319 323 320 310 305 303 302 307 305 309 315 305 297 279 257 229 213 208 199 188 195 199 186 208